{"data":{"norad_id":55834,"intl_designator":"2023-029AQ","name":"ONEWEB-0675","alt_names":[],"object_type":"PAYLOAD","status":"ACTIVE","operator":null,"country":"UK","launch_date":"2023-03-09","launch_site_code":"AFETR","launch_vehicle":null,"mission":null,"orbit_class":"UNKNOWN","rcs_meters":null,"size_class":null,"mass_kg":null,"dimensions":null,"purposes":["comms"],"wikipedia_slug":null,"has_3d_model":false,"image_url":null,"decayed_at":null,"tle_current":{"epoch":"2026-05-25T03:48:52.257888Z","epoch_age_seconds":64422,"freshness":"FRESH","line1":"1 55834U 23029AQ  26145.15893817  .00000134  00000+0  30218-3 0  9995","line2":"2 55834  87.9150 309.5680 0001724 103.1879 256.9446 13.19726696155884","mean_motion":13.19726696,"eccentricity":0.0001724,"inclination_deg":87.915,"raan_deg":309.568,"arg_perigee_deg":103.1879,"mean_anomaly_deg":256.9446,"bstar":0.00030218,"rev_number":15588,"period_min":109.11350087594,"perigee_km":1184.4600551264,"apogee_km":1187.068088216,"semimajor_km":7563.9010716712,"source":"CELESTRAK","updated_at":"2026-05-25T13:38:22.698923Z"}}}